This demonstration page uses our WeatherBlox Daily Observations layout. Learn more.

Left ArrowRight Arrow

Hourly Observations for September 12, 2019

Temp ( °F °C ) Dew Point ( °F °C ) Humidity (%) Winds ( mph kmh ) Pressure ( in mb ) Visibility ( mi km ) Precip ( " mm )
12:59 am 00:59 Mostly Cloudy 75 23.9 69 20.6 82 82 SSW 8 13 30.11 1020 10 16 0.00 0.00
1:59 am 01:59 Partly Cloudy 75 23.9 70 21.1 84 84 SSW 8 13 30.12 1020 10 16 0.00 0.00
2:59 am 02:59 Mostly Cloudy 74 23.3 70 21.1 88 88 SSW 8 13 30.08 1019 10 16 0.00 0.00
3:59 am 03:59 Mostly Cloudy 75 23.9 71 21.7 88 88 SW 8 13 30.09 1019 10 16 0.00 0.00
4:59 am 04:59 Partly Cloudy 73 22.8 71 21.7 94 94 SSW 7 11 30.09 1019 10 16 0.00 0.00
5:59 am 05:59 Partly Cloudy 73 22.8 71 21.7 94 94 SSW 7 11 30.10 1019 10 16 0.00 0.00
6:59 am 06:59 Mostly Cloudy 73 22.8 71 21.7 94 94 SSW 7 11 30.10 1019 9 14 0.00 0.00
7:59 am 07:59 Partly Cloudy 74 23.3 72 22.2 94 94 SW 10 17 30.11 1020 8 13 0.00 0.00
8:59 am 08:59 Mostly Sunny 78 25.6 73 22.8 85 85 WSW 5 7 30.12 1020 9 14 0.00 0.00
9:59 am 09:59 Mostly Sunny 81 27.2 73 22.8 77 77 SW 7 11 30.12 1020 9 14 0.00 0.00
10:59 am 10:59 Sunny 84 28.9 73 22.8 70 70 WSW 6 9 30.11 1020 9 14 0.00 0.00
11:59 am 11:59 Mostly Sunny 85 29.4 73 22.8 68 68 VRB 6 9 30.11 1020 9 14 0.00 0.00
12:59 pm 12:59 Mostly Sunny 87 30.6 73 22.8 63 63 Calm 30.11 1020 9 14 0.00 0.00
1:59 pm 13:59 Mostly Sunny 90 32.2 71 21.7 54 54 N 6 9 30.09 1019 10 16 0.00 0.00
2:59 pm 14:59 Mostly Sunny 90 32.2 71 21.7 54 54 E 6 9 30.07 1018 10 16 0.00 0.00
3:59 pm 15:59 Mostly Sunny 91 32.8 69 20.6 49 49 VRB 3 6 30.06 1018 10 16 0.00 0.00
4:59 pm 16:59 Mostly Sunny 90 32.2 69 20.6 50 50 VRB 3 6 30.06 1018 10 16 0.00 0.00
5:59 pm 17:59 Mostly Sunny 88 31.1 70 21.1 55 55 E 6 9 30.05 1018 10 16 0.00 0.00
6:59 pm 18:59 Mostly Sunny 85 29.4 71 21.7 63 63 E 3 6 30.06 1018 10 16 0.00 0.00
7:59 pm 19:59 Partly Cloudy 80 26.7 72 22.2 76 76 E 3 6 30.06 1018 10 16 0.00 0.00
8:59 pm 20:59 Partly Cloudy 79 26.1 72 22.2 79 79 Calm 30.09 1019 9 14 0.00 0.00
9:59 pm 21:59 Partly Cloudy 77 25 73 22.8 88 88 SSE 3 6 30.10 1019 9 14 0.00 0.00
10:59 pm 22:59 Mostly Cloudy 79 26.1 73 22.8 82 82 Calm 30.10 1019 9 14 0.00 0.00
11:57 pm 23:57 Mostly Cloudy with Thunderstorms 79 26 73 23 84 84 S 3 6 30.10 1019 8 13 0.00 0.00
11:59 pm 23:59 Mostly Cloudy with Thunderstorms 78 25.6 74 23.3 87 87 SSW 3 6 30.10 1019 8 13 0.00 0.00

Powered by AerisWeather